When you browse on this site, cookies collect data to enhance your experience and personalize the content and advertising you see.
Visit our Privacy Policy to learn more. By continuing to use the site, you agree to this use of cookies and data.
  • In Österreich
  • Länderverzeichnis
  • Für 7 Tage
  • Wassertemperatur
  • Wetterkarte
  • News
  • Widgets
  • user-avatar
    Anmelden

    Stündliche Wetter Grichinovichi

    Heute, 29 Mai, Freitag

    Zeit Temperatur Niederschläge Wind Luftdruck Luftfeuchtigkeit
    00:00 +10°C° 0.1 mm 2 m/S 750 mmHg 93%
    01:00 +10°C° 0.1 mm 3 m/S 750 mmHg 94%
    02:00 +10°C° 0.1 mm 3 m/S 749 mmHg 94%
    03:00 +10°C° 0.3 mm 3 m/S 749 mmHg 94%
    04:00 +10°C° 0.3 mm 4 m/S 748 mmHg 94%
    05:00 +10°C° 0.3 mm 4 m/S 748 mmHg 94%
    06:00 +10°C° 1 mm 5 m/S 748 mmHg 93%
    07:00 +10°C° 1 mm 6 m/S 748 mmHg 93%
    08:00 +10°C° 1 mm 7 m/S 747 mmHg 92%
    09:00 +10°C° 1.6 mm 7 m/S 747 mmHg 92%
    10:00 +10°C° 1.6 mm 7 m/S 747 mmHg 92%
    11:00 +10°C° 1.6 mm 7 m/S 747 mmHg 92%
    12:00 +10°C° 0.3 mm 7 m/S 747 mmHg 91%
    13:00 +10°C° 0.3 mm 7 m/S 747 mmHg 91%
    14:00 +11°C° 0.3 mm 7 m/S 747 mmHg 90%
    15:00 +11°C° 0.2 mm 7 m/S 746 mmHg 90%
    16:00 +11°C° 0.2 mm 7 m/S 746 mmHg 91%
    17:00 +11°C° 0.2 mm 7 m/S 746 mmHg 91%
    18:00 +11°C° 0.7 mm 7 m/S 746 mmHg 92%
    19:00 +10°C° 0.7 mm 7 m/S 746 mmHg 93%
    20:00 +10°C° 0.7 mm 6 m/S 745 mmHg 93%
    21:00 +11°C° 2.6 mm 6 m/S 745 mmHg 94%
    22:00 +11°C° 2.6 mm 6 m/S 745 mmHg 95%
    23:00 +12°C° 2.6 mm 5 m/S 745 mmHg 96%

    Morgen, 30 Mai, Samstag

    Zeit Temperatur Niederschläge Wind Luftdruck Luftfeuchtigkeit
    00:00 +12°C° 0.2 mm 5 m/S 745 mmHg 97%
    01:00 +12°C° 0.2 mm 4 m/S 744 mmHg 97%
    02:00 +12°C° 0.2 mm 4 m/S 744 mmHg 97%
    03:00 +12°C° 0 mm 4 m/S 744 mmHg 97%
    04:00 +12°C° 0 mm 3 m/S 744 mmHg 97%
    05:00 +12°C° 0 mm 3 m/S 744 mmHg 98%
    06:00 +13°C° 0 mm 3 m/S 744 mmHg 96%
    07:00 +14°C° 0 mm 3 m/S 744 mmHg 94%
    08:00 +16°C° 0 mm 3 m/S 744 mmHg 93%
    09:00 +15°C° 0.8 mm 4 m/S 743 mmHg 92%
    10:00 +15°C° 0.8 mm 4 m/S 743 mmHg 91%
    11:00 +16°C° 0.8 mm 5 m/S 743 mmHg 91%
    12:00 +15°C° 6.1 mm 5 m/S 742 mmHg 93%
    13:00 +15°C° 6.1 mm 5 m/S 742 mmHg 95%
    14:00 +14°C° 6.1 mm 5 m/S 741 mmHg 98%
    15:00 +14°C° 4 mm 5 m/S 741 mmHg 97%
    16:00 +14°C° 4 mm 6 m/S 740 mmHg 96%
    17:00 +15°C° 4 mm 7 m/S 739 mmHg 96%
    18:00 +15°C° 2.1 mm 7 m/S 739 mmHg 95%
    19:00 +15°C° 2.1 mm 7 m/S 738 mmHg 95%
    20:00 +16°C° 2.1 mm 8 m/S 738 mmHg 94%
    21:00 +16°C° 0.7 mm 8 m/S 738 mmHg 94%
    22:00 +16°C° 0.7 mm 9 m/S 737 mmHg 93%
    23:00 +16°C° 0.7 mm 9 m/S 737 mmHg 93%

    übermorgen, 31 Mai, Sonntag

    Zeit Temperatur Niederschläge Wind Luftdruck Luftfeuchtigkeit
    00:00 +15°C° 0 mm 8 m/S 738 mmHg 93%
    01:00 +13°C° 0 mm 8 m/S 738 mmHg 93%
    02:00 +12°C° 0 mm 7 m/S 738 mmHg 94%
    03:00 +12°C° 0 mm 7 m/S 739 mmHg 93%
    04:00 +12°C° 0 mm 7 m/S 739 mmHg 93%
    05:00 +13°C° 0 mm 6 m/S 740 mmHg 92%
    06:00 +13°C° 0 mm 6 m/S 741 mmHg 90%
    07:00 +13°C° 0 mm 6 m/S 742 mmHg 88%
    08:00 +14°C° 0 mm 6 m/S 742 mmHg 86%
    09:00 +14°C° 0.1 mm 5 m/S 743 mmHg 84%
    10:00 +15°C° 0.1 mm 5 m/S 744 mmHg 82%
    11:00 +17°C° 0.1 mm 4 m/S 745 mmHg 80%
    12:00 +17°C° 0.2 mm 4 m/S 745 mmHg 78%
    13:00 +18°C° 0.2 mm 3 m/S 746 mmHg 77%
    14:00 +19°C° 0.2 mm 3 m/S 746 mmHg 75%
    15:00 +18°C° 1.4 mm 4 m/S 746 mmHg 81%
    16:00 +15°C° 1.4 mm 5 m/S 747 mmHg 88%
    17:00 +14°C° 1.4 mm 6 m/S 747 mmHg 94%
    18:00 +13°C° 0.7 mm 5 m/S 747 mmHg 95%
    19:00 +12°C° 0.7 mm 4 m/S 748 mmHg 95%
    20:00 +12°C° 0.7 mm 4 m/S 748 mmHg 96%
    21:00 +12°C° 0.1 mm 4 m/S 749 mmHg 95%
    22:00 +12°C° 0.1 mm 4 m/S 749 mmHg 95%
    23:00 +12°C° 0.1 mm 4 m/S 750 mmHg 94%

    1 Juni, Montag

    Zeit Temperatur Niederschläge Wind Luftdruck Luftfeuchtigkeit
    00:00 +12°C° 0 mm 4 m/S 750 mmHg 94%
    01:00 +11°C° 0 mm 4 m/S 750 mmHg 94%
    02:00 +10°C° 0 mm 4 m/S 750 mmHg 93%
    03:00 +11°C° 0 mm 4 m/S 751 mmHg 93%
    04:00 +11°C° 0 mm 4 m/S 751 mmHg 93%
    05:00 +10°C° 0 mm 5 m/S 751 mmHg 92%
    06:00 +12°C° 0 mm 5 m/S 752 mmHg 88%
    07:00 +13°C° 0 mm 5 m/S 752 mmHg 84%
    08:00 +14°C° 0 mm 6 m/S 752 mmHg 80%
    09:00 +15°C° 0 mm 6 m/S 753 mmHg 74%
    10:00 +16°C° 0 mm 6 m/S 753 mmHg 68%
    11:00 +19°C° 0 mm 6 m/S 753 mmHg 62%
    12:00 +19°C° 0 mm 6 m/S 753 mmHg 61%
    13:00 +19°C° 0 mm 6 m/S 753 mmHg 61%
    14:00 +20°C° 0 mm 5 m/S 753 mmHg 60%
    15:00 +19°C° 0 mm 5 m/S 753 mmHg 61%
    16:00 +19°C° 0 mm 5 m/S 753 mmHg 62%
    17:00 +17°C° 0 mm 5 m/S 753 mmHg 64%
    18:00 +17°C° 0 mm 4 m/S 753 mmHg 69%
    19:00 +14°C° 0 mm 3 m/S 753 mmHg 74%
    20:00 +13°C° 0 mm 3 m/S 753 mmHg 80%
    21:00 +13°C° 0 mm 2 m/S 754 mmHg 83%
    22:00 +12°C° 0 mm 2 m/S 754 mmHg 87%
    23:00 +10°C° 0 mm 2 m/S 754 mmHg 90%

    2 Juni, Dienstag

    Zeit Temperatur Niederschläge Wind Luftdruck Luftfeuchtigkeit
    00:00 +10°C° 0 mm 2 m/S 754 mmHg 91%
    01:00 +9°C° 0 mm 2 m/S 754 mmHg 91%
    02:00 +9°C° 0 mm 2 m/S 754 mmHg 92%
    03:00 +9°C° 0 mm 2 m/S 754 mmHg 92%
    04:00 +9°C° 0 mm 2 m/S 754 mmHg 91%
    05:00 +9°C° 0 mm 2 m/S 754 mmHg 91%
    06:00 +12°C° 0 mm 2 m/S 754 mmHg 86%
    07:00 +14°C° 0 mm 2 m/S 754 mmHg 80%
    08:00 +16°C° 0 mm 2 m/S 754 mmHg 75%
    09:00 +18°C° 0 mm 2 m/S 754 mmHg 71%
    10:00 +19°C° 0 mm 3 m/S 753 mmHg 67%
    11:00 +20°C° 0 mm 3 m/S 753 mmHg 63%
    12:00 +21°C° 0.1 mm 3 m/S 753 mmHg 61%
    13:00 +21°C° 0.1 mm 3 m/S 753 mmHg 59%
    14:00 +23°C° 0.1 mm 2 m/S 752 mmHg 58%
    15:00 +21°C° 0.6 mm 3 m/S 752 mmHg 65%
    16:00 +21°C° 0.6 mm 3 m/S 752 mmHg 72%
    17:00 +20°C° 0.6 mm 3 m/S 751 mmHg 78%
    18:00 +19°C° 0.5 mm 2 m/S 751 mmHg 82%
    19:00 +18°C° 0.5 mm 2 m/S 751 mmHg 85%
    20:00 +16°C° 0.5 mm 2 m/S 751 mmHg 88%
    21:00 +15°C° 0 mm 2 m/S 751 mmHg 90%
    22:00 +14°C° 0 mm 2 m/S 751 mmHg 92%
    23:00 +14°C° 0 mm 2 m/S 751 mmHg 94%

    3 Juni, Mittwoch

    Zeit Temperatur Niederschläge Wind Luftdruck Luftfeuchtigkeit
    00:00 +13°C° 0 mm 1 m/S 751 mmHg 94%
    01:00 +13°C° 0 mm 1 m/S 751 mmHg 94%
    02:00 +12°C° 0 mm 1 m/S 751 mmHg 95%
    03:00 +12°C° 0 mm 1 m/S 751 mmHg 95%
    04:00 +12°C° 0 mm 1 m/S 751 mmHg 94%
    05:00 +12°C° 0 mm 1 m/S 751 mmHg 94%
    06:00 +13°C° 0 mm 1 m/S 751 mmHg 90%
    07:00 +15°C° 0 mm 1 m/S 751 mmHg 85%
    08:00 +16°C° 0 mm 1 m/S 752 mmHg 80%
    09:00 +18°C° 0 mm 2 m/S 752 mmHg 74%
    10:00 +19°C° 0 mm 2 m/S 751 mmHg 67%
    11:00 +20°C° 0 mm 2 m/S 751 mmHg 61%
    12:00 +20°C° 0 mm 2 m/S 751 mmHg 58%
    13:00 +21°C° 0 mm 2 m/S 751 mmHg 55%
    14:00 +21°C° 0 mm 2 m/S 751 mmHg 52%
    15:00 +21°C° 0 mm 2 m/S 751 mmHg 54%
    16:00 +21°C° 0 mm 2 m/S 751 mmHg 56%
    17:00 +21°C° 0 mm 2 m/S 751 mmHg 57%
    18:00 +19°C° 0 mm 2 m/S 750 mmHg 64%
    19:00 +18°C° 0 mm 1 m/S 750 mmHg 70%
    20:00 +16°C° 0 mm 1 m/S 750 mmHg 76%
    21:00 +15°C° 0 mm 2 m/S 751 mmHg 78%
    22:00 +14°C° 0 mm 2 m/S 751 mmHg 80%
    23:00 +13°C° 0 mm 2 m/S 751 mmHg 82%
    Mehr zeigen